Regional Weather Roundup
Issued by NWS Cleveland, OH

Home | Current Version | Previous Version | Graphics & Text | Print | Product List | Glossary On
Versions: 1 2 3 4 5 6 7 8 9 10 11 12 13 14 15 16 17 18 19 20 21 22 23 24 25 26 27 28 29 30 31 32 33 34 35 36 37 38 39 40 41 42 43 44 45 46 47 48 49 50
000
ASUS41 KCLE 270502
RWRCLE
OHIO REGIONAL WEATHER ROUNDUP
NATIONAL WEATHER SERVICE CLEVELAND, OH
1200 AM EST TUE JAN 27 2015

NOTE: "FAIR" INDICATES FEW OR NO CLOUDS BELOW 12,000 FEET WITH NO
SIGNIFICANT WEATHER AND/OR OBSTRUCTIONS TO VISIBILITY.

OHZ001>008-015>018-024>027-034-035-043-044-270600-
   NORTHWEST OHIO

CITY           SKY/WX    TMP DP  RH WIND       PRES   REMARKS
DEFIANCE       CLOUDY    10   6  84 CALM      29.96F
FINDLAY        PTCLDY     4   0  83 CALM      29.95S FOG
TOLEDO EXPRESS CLEAR      9   5  84 CALM      29.97S
TOLEDO EXEC    CLEAR      9   4  80 CALM      29.98S
LIMA           MOCLDY     6   2  83 CALM      29.94S FOG
$$

OHZ009>014-019>023-028>033-038-089-270600-
   NORTHEAST OHIO

CITY           SKY/WX    TMP DP  RH WIND       PRES   REMARKS
CLE-HOPKINS    LGT SNOW  20  16  84 NE12      29.95S WCI   8
CLE-LAKEFRONT  LGT SNOW  22  16  78 N9        29.93S WCI  12
CUY CO. ARPT   NOT AVBL
LORAIN-ELYRIA  LGT SNOW  19  16  88 N5        29.93F FOG     WCI  12
ASHTABULA      FLURRIES  20  15  81 N6        29.90R WCI  12
AKRON-CANTON   LGT SNOW  20  15  81 N7        29.88S WCI  11
WOOSTER        LGT SNOW  16  12  84 NW8       29.91R FOG     WCI   5
MANSFIELD      CLOUDY    13  11  92 NW5       29.90S FOG     WCI   5
YOUNGSTOWN     LGT SNOW  19  16  88 NW7       29.86R FOG     WCI  10
$$

OHZ042-051>053-060>062-070>072-077>081-270600-
  SOUTHWEST OHIO

CITY           SKY/WX    TMP DP  RH WIND       PRES   REMARKS
CINC-COVINGTON CLOUDY    25  17  72 E6        29.93S WCI  18
CINC-LUNKEN    CLOUDY    22  14  71 NE5       29.98S WCI  16
HAMILTON       CLOUDY    21  14  74 E3        29.98S
DAYTON         CLOUDY    16  12  84 CALM      29.95S
WRIGHT-PAT AFB NOT AVBL
DAYTON GENERAL CLOUDY    17  12  80 E5        29.93S WCI  10
WILMINGTON     CLOUDY    11   7  84 CALM      29.93S
$$

OHZ036-037-039>041-045>050-054>059-063>069-073>076-082>088-270600-
  CENTRAL AND SOUTHEAST OHIO

CITY           SKY/WX    TMP DP  RH WIND       PRES   REMARKS
COLUMBUS       CLOUDY    12   8  84 NW5       29.95S WCI   4
OSU AIRPORT    PTCLDY     9   5  84 NW6       29.94F WCI  -1
BOLTON FIELD   NOT AVBL
RICKENBACK AFB NOT AVBL
NEWARK         CLOUDY    17  11  77 N3        29.93S
MARION         HAZE       2  -3  80 CALM      29.94S VSB 1
LANCASTER      CLOUDY     8   4  83 NW3       29.95S
ZANESVILLE     CLOUDY    18  13  80 W6        29.92R HAZE    WCI  10
NEW PHILLY     LGT SNOW  21  15  78 N5        29.91S WCI  15
$$


USA.gov is the U.S. government's official web portal to all federal, state and local government web resources and services.